EDT,Max TemperatureF,Mean TemperatureF,Min TemperatureF,Max Dew PointF,MeanDew PointF,Min DewpointF,Max Humidity, Mean Humidity, Min Humidity, Max Sea Level PressureIn, Mean Sea Level PressureIn, Min Sea Level PressureIn, Max VisibilityMiles, Mean VisibilityMiles, Min VisibilityMiles, Max Wind SpeedMPH, Mean Wind SpeedMPH, Max Gust SpeedMPH,PrecipitationIn, CloudCover, Events, WindDirDegrees
2013-6-1,87,77,67,69,66,63,93,74,55,30.09,30.03,29.96,10,10,10,15,6,22,0.00,3,,156
2013-6-2,84,75,66,72,69,66,100,82,63,29.99,29.93,29.85,10,9,1,15,4,18,0.42,6,Rain-Thunderstorm,168
2013-6-3,85,75,65,70,67,62,100,76,51,29.98,29.92,29.87,10,9,2,10,1,15,0.03,5,Rain,354
2013-6-4,87,74,61,68,64,61,100,73,45,30.00,29.97,29.94,10,9,7,8,1,15,0.00,1,,9
2013-6-5,85,75,65,70,69,66,100,81,61,30.04,29.97,29.86,10,9,5,10,3,16,0.01,5,Rain-Thunderstorm,111
2013-6-6,83,76,69,72,69,66,100,79,58,29.94,29.85,29.73,10,10,10,6,2,7,0.00,6,,54
2013-6-7,85,76,66,72,68,66,100,79,58,29.89,29.78,29.69,10,8,0,3,1,6,1.03,6,Fog-Rain-Thunderstorm,338
2013-6-8,83,75,66,71,67,64,100,78,55,30.06,29.96,29.86,10,5,1,7,1,10,0.00,6,,177
2013-6-9,83,74,65,72,69,65,100,84,67,30.07,30.03,29.97,10,8,3,10,4,15,0.15,3,Rain,156
2013-6-10,83,75,67,72,68,64,97,76,55,30.05,29.99,29.91,10,9,2,10,4,15,0.14,5,Rain-Thunderstorm,178
2013-6-11,90,80,70,74,72,70,100,78,56,30.07,30.00,29.95,10,10,7,7,1,15,0.00,3,,-1
2013-6-12,91,81,70,78,74,70,100,80,59,30.06,30.01,29.96,10,9,3,7,1,12,T,1,Thunderstorm,210
2013-6-13,91,80,68,75,72,68,100,76,52,29.96,29.86,29.74,10,8,1,17,2,26,0.96,3,Rain-Thunderstorm,48
2013-6-14,84,73,62,70,63,59,100,72,44,29.98,29.92,29.84,10,7,2,14,3,21,0.00,0,,358
2013-6-15,86,73,60,65,62,58,100,70,40,30.11,30.06,30.01,10,10,9,12,2,16,0.00,1,,140
2013-6-16,87,74,60,76,69,60,100,80,59,30.13,30.07,29.99,10,8,1,13,2,20,1.33,4,Rain-Thunderstorm,144
2013-6-17,85,77,68,74,71,68,100,87,74,30.10,30.01,29.94,10,9,2,6,2,9,0.26,4,Rain-Thunderstorm,68
2013-6-18,83,76,68,73,71,68,100,87,74,29.99,29.91,29.85,10,7,0,7,2,9,1.42,6,Fog-Rain-Thunderstorm,179
2013-6-19,84,75,66,73,68,66,100,78,55,30.06,29.99,29.91,10,10,10,10,1,13,0.00,5,,13
2013-6-20,85,75,65,71,67,65,100,76,51,30.20,30.13,30.06,10,10,6,12,3,17,0.00,2,,89
2013-6-21,86,76,65,69,66,63,100,74,48,30.23,30.18,30.13,10,9,6,9,2,14,0.00,1,,103
2013-6-22,85,74,62,68,63,58,100,70,40,30.21,30.15,30.07,10,9,6,13,2,16,0.00,0,,73
2013-6-23,85,75,64,73,68,65,100,78,55,30.22,30.14,30.08,10,10,6,9,3,14,0.00,3,,163
2013-6-24,83,75,66,74,71,66,100,87,74,30.24,30.18,30.09,10,9,2,8,2,12,0.17,5,Rain-Thunderstorm,176
2013-6-25,87,77,66,72,70,66,100,79,57,30.16,30.10,30.03,10,10,10,8,1,12,0.00,2,,170
2013-6-26,89,79,69,74,72,69,100,78,55,30.07,30.00,29.92,10,9,6,8,1,13,0.00,2,,192
2013-6-27,88,79,70,77,72,68,100,83,65,29.97,29.89,29.80,10,9,1,8,3,25,0.31,4,Rain-Thunderstorm,41
2013-6-28,91,80,68,76,70,63,100,75,50,29.85,29.77,29.66,10,8,5,14,1,18,0.00,2,,-1
2013-6-29,88,77,65,72,68,60,100,71,42,29.75,29.70,29.65,10,9,6,8,1,16,0.00,4,,-1
2013-6-30,88,75,61,67,63,53,100,66,32,29.77,29.72,29.69,10,10,7,9,1,14,0.00,1,,190